QXE2146 KPAE-KGEG

Flight info

Callsign QXE2146
Flight time 0h 39m
Altitude 33000
Route ZADON ZELAK ZIRAN ZOOMR ZOOMR2
Aircraft E75L/M-SDE3GILORVW/S

Departure

Time 2026-04-30 13:47
Airport Seattle Paine Field International Airport (KPAE)

Arrival

Time 2026-04-30 14:26
Airport Spokane International Airport (KGEG)
Time Latitude Longitude Altitude Speed Heading
2026-04-30 13:29 47.90830 -122.27920 596 ft 0 kts 53°
2026-04-30 13:41 47.90831 -122.27919 596 ft 0 kts 53°
2026-04-30 13:41 47.90832 -122.27917 596 ft 0 kts 53°
2026-04-30 13:41 47.90823 -122.27936 596 ft 2 kts 53°
2026-04-30 13:42 47.90813 -122.27955 595 ft 2 kts 53°
2026-04-30 13:42 47.90806 -122.27968 595 ft 0 kts 53°
2026-04-30 13:43 47.90810 -122.27966 595 ft 1 kts
2026-04-30 13:43 47.90815 -122.27973 595 ft 1 kts 298°
2026-04-30 13:43 47.90815 -122.28018 594 ft 9 kts 263°
2026-04-30 13:44 47.90806 -122.28139 594 ft 9 kts 273°
2026-04-30 13:44 47.90842 -122.28214 593 ft 12 kts 311°
2026-04-30 13:44 47.90906 -122.28314 594 ft 14 kts 316°
2026-04-30 13:44 47.91002 -122.28342 593 ft 16 kts 358°
2026-04-30 13:45 47.91269 -122.28350 589 ft 22 kts
2026-04-30 13:45 47.91442 -122.28355 582 ft 27 kts
2026-04-30 13:45 47.91613 -122.28359 581 ft 24 kts 358°
2026-04-30 13:46 47.91795 -122.28373 579 ft 27 kts 355°
2026-04-30 13:46 47.91982 -122.28391 582 ft 24 kts 354°
2026-04-30 13:46 47.92117 -122.28420 582 ft 15 kts 328°
2026-04-30 13:46 47.92145 -122.28560 582 ft 14 kts 242°
2026-04-30 13:47 47.92014 -122.28583 582 ft 40 kts 177°
2026-04-30 13:47 47.91494 -122.28571 586 ft 112 kts 179°
2026-04-30 13:47 47.90526 -122.28561 804 ft 156 kts 179°
2026-04-30 13:47 47.89405 -122.28392 1413 ft 166 kts 160°
2026-04-30 13:48 47.88430 -122.27396 1888 ft 184 kts 131°
2026-04-30 13:48 47.87560 -122.25879 2484 ft 200 kts 129°
2026-04-30 13:48 47.86614 -122.24258 3145 ft 213 kts 131°
2026-04-30 13:48 47.85587 -122.22565 3848 ft 230 kts 132°
2026-04-30 13:49 47.84447 -122.20717 4460 ft 253 kts 133°
2026-04-30 13:49 47.83239 -122.18747 5429 ft 259 kts 133°
2026-04-30 13:49 47.82020 -122.16785 6524 ft 257 kts 133°
2026-04-30 13:49 47.80807 -122.14839 7515 ft 257 kts 133°
2026-04-30 13:50 47.79596 -122.12883 8343 ft 259 kts 132°
2026-04-30 13:50 47.77149 -122.08870 9814 ft 268 kts 132°
2026-04-30 13:50 47.75876 -122.06774 10269 ft 283 kts 132°
2026-04-30 13:51 47.74522 -122.04515 10542 ft 302 kts 131°
2026-04-30 13:51 47.73083 -122.02104 10743 ft 322 kts 131°
2026-04-30 13:51 47.71560 -121.99548 11074 ft 334 kts 131°
2026-04-30 13:51 47.70000 -121.96948 11665 ft 338 kts 131°
2026-04-30 13:52 47.68955 -121.95214 12099 ft 340 kts 131°
2026-04-30 13:52 47.66854 -121.91726 13020 ft 343 kts 131°
2026-04-30 13:52 47.65260 -121.89071 13737 ft 347 kts 130°
2026-04-30 13:52 47.64188 -121.87282 14189 ft 350 kts 130°
2026-04-30 13:53 47.62558 -121.84558 14838 ft 355 kts 130°
2026-04-30 13:53 47.60917 -121.81813 15516 ft 358 kts 130°
2026-04-30 13:53 47.59255 -121.79025 16175 ft 363 kts 130°
2026-04-30 13:53 47.57578 -121.76202 16829 ft 366 kts 129°
2026-04-30 13:54 47.56266 -121.72966 17430 ft 369 kts 108°
2026-04-30 13:54 47.55907 -121.69226 18137 ft 370 kts 90°
2026-04-30 13:54 47.55890 -121.65401 18798 ft 374 kts 89°
2026-04-30 13:54 47.55899 -121.61527 19435 ft 379 kts 88°
2026-04-30 13:55 47.55923 -121.57599 20096 ft 383 kts 88°
2026-04-30 13:55 47.55965 -121.53622 20781 ft 387 kts 88°
2026-04-30 13:55 47.55963 -121.49669 21406 ft 391 kts 90°
2026-04-30 13:55 47.55889 -121.45625 22056 ft 395 kts 90°
2026-04-30 13:56 47.55815 -121.41537 22671 ft 398 kts 89°
2026-04-30 13:56 47.55747 -121.37421 23267 ft 402 kts 89°
2026-04-30 13:56 47.55680 -121.33269 23846 ft 405 kts 89°
2026-04-30 13:56 47.55612 -121.29071 24343 ft 409 kts 89°
2026-04-30 13:57 47.55544 -121.24841 24826 ft 413 kts 89°
2026-04-30 13:57 47.55473 -121.20557 25312 ft 418 kts 89°
2026-04-30 13:57 47.55398 -121.16286 25826 ft 421 kts 88°
2026-04-30 13:57 47.55325 -121.11991 26620 ft 415 kts 88°
2026-04-30 13:58 47.55251 -121.07734 27266 ft 414 kts 88°
2026-04-30 13:58 47.55099 -120.99176 28371 ft 416 kts 88°
2026-04-30 13:58 47.55017 -120.94898 28896 ft 416 kts 87°
2026-04-30 13:59 47.54936 -120.90631 29499 ft 416 kts 87°
2026-04-30 13:59 47.54854 -120.86344 30083 ft 416 kts 87°
2026-04-30 13:59 47.54770 -120.82057 30619 ft 416 kts 87°
2026-04-30 13:59 47.54684 -120.77774 31029 ft 417 kts 87°
2026-04-30 14:00 47.54598 -120.73477 31497 ft 418 kts 86°
2026-04-30 14:00 47.54419 -120.64901 32442 ft 419 kts 86°
2026-04-30 14:00 47.54324 -120.60619 33051 ft 415 kts 86°
2026-04-30 14:01 47.54229 -120.56329 33353 ft 419 kts 86°
2026-04-30 14:01 47.54135 -120.51980 33321 ft 427 kts 86°
2026-04-30 14:01 47.53938 -120.42991 33328 ft 446 kts 86°
2026-04-30 14:02 47.53581 -120.33624 33237 ft 465 kts 89°
2026-04-30 14:02 47.53104 -120.24015 33252 ft 471 kts 89°
2026-04-30 14:03 47.52644 -120.14347 33247 ft 471 kts 89°
2026-04-30 14:03 47.52186 -120.04669 32836 ft 471 kts 89°
2026-04-30 14:04 47.51954 -119.99839 32356 ft 472 kts 89°
2026-04-30 14:04 47.51719 -119.94988 31753 ft 470 kts 89°
2026-04-30 14:04 47.51484 -119.90182 31130 ft 467 kts 89°
2026-04-30 14:04 47.51250 -119.85407 30551 ft 465 kts 89°
2026-04-30 14:05 47.51017 -119.80717 29964 ft 463 kts 89°
2026-04-30 14:05 47.50778 -119.75954 28991 ft 466 kts 89°
2026-04-30 14:05 47.50538 -119.71181 27547 ft 454 kts 90°
2026-04-30 14:05 47.50300 -119.66643 27098 ft 444 kts 90°
2026-04-30 14:06 47.50069 -119.62066 26274 ft 443 kts 91°
2026-04-30 14:06 47.49616 -119.53309 25070 ft 413 kts 91°
2026-04-30 14:07 47.49350 -119.45060 24462 ft 398 kts 89°
2026-04-30 14:07 47.49265 -119.40946 24276 ft 402 kts 90°
2026-04-30 14:07 47.49171 -119.36856 24056 ft 404 kts 90°
2026-04-30 14:08 47.48963 -119.28569 23547 ft 402 kts 90°
2026-04-30 14:08 47.48857 -119.24441 23274 ft 400 kts 90°
2026-04-30 14:08 47.48929 -119.16240 22689 ft 398 kts 86°
2026-04-30 14:09 47.48968 -119.12122 21624 ft 403 kts 88°
2026-04-30 14:09 47.48940 -119.08043 21101 ft 388 kts 89°
2026-04-30 14:09 47.48828 -119.00216 20052 ft 377 kts 89°
2026-04-30 14:10 47.48766 -118.96386 19549 ft 377 kts 89°
2026-04-30 14:10 47.48699 -118.92544 19055 ft 371 kts 90°
2026-04-30 14:10 47.48631 -118.88774 18520 ft 362 kts 90°
2026-04-30 14:10 47.48564 -118.85036 17764 ft 358 kts 90°
2026-04-30 14:11 47.48494 -118.81415 17334 ft 349 kts 90°
2026-04-30 14:11 47.48428 -118.77833 16889 ft 347 kts 90°
2026-04-30 14:11 47.48360 -118.74260 16424 ft 348 kts 90°
2026-04-30 14:11 47.48291 -118.70693 15965 ft 346 kts 90°
2026-04-30 14:12 47.48221 -118.67180 15508 ft 344 kts 90°
2026-04-30 14:12 47.48150 -118.63678 15047 ft 337 kts 90°
2026-04-30 14:12 47.48080 -118.60255 14602 ft 330 kts 90°
2026-04-30 14:12 47.48033 -118.57971 14306 ft 326 kts 91°
2026-04-30 14:13 47.47941 -118.53573 13713 ft 318 kts 91°
2026-04-30 14:13 47.47872 -118.50363 13328 ft 309 kts 91°
2026-04-30 14:13 47.47803 -118.47210 12922 ft 305 kts 91°
2026-04-30 14:13 47.47735 -118.44089 12522 ft 303 kts 91°
2026-04-30 14:14 47.47666 -118.40983 12111 ft 300 kts 91°
2026-04-30 14:14 47.47597 -118.37929 11708 ft 294 kts 91°
2026-04-30 14:14 47.47530 -118.34980 11328 ft 288 kts 91°
2026-04-30 14:14 47.47462 -118.32051 10951 ft 283 kts 91°
2026-04-30 14:15 47.47395 -118.29168 10577 ft 278 kts 91°
2026-04-30 14:15 47.47328 -118.26335 10211 ft 274 kts 91°
2026-04-30 14:15 47.47261 -118.23537 9838 ft 270 kts 91°
2026-04-30 14:15 47.47195 -118.20797 9498 ft 264 kts 91°
2026-04-30 14:16 47.47130 -118.18096 9139 ft 259 kts 91°
2026-04-30 14:16 47.47065 -118.15466 8787 ft 250 kts 91°
2026-04-30 14:16 47.47001 -118.12947 8478 ft 242 kts 92°
2026-04-30 14:16 47.46939 -118.10497 8155 ft 236 kts 92°
2026-04-30 14:17 47.46841 -118.08140 7828 ft 230 kts 97°
2026-04-30 14:17 47.46532 -118.05886 7563 ft 219 kts 103°
2026-04-30 14:17 47.46183 -118.03675 7264 ft 221 kts 102°
2026-04-30 14:17 47.45856 -118.01442 6977 ft 223 kts 101°
2026-04-30 14:18 47.45548 -117.99185 6680 ft 224 kts 101°
2026-04-30 14:18 47.45260 -117.96975 6369 ft 215 kts 100°
2026-04-30 14:18 47.44743 -117.92874 5877 ft 190 kts 100°
2026-04-30 14:19 47.44271 -117.89104 5400 ft 188 kts 100°
2026-04-30 14:19 47.44041 -117.87199 5105 ft 188 kts 99°
2026-04-30 14:19 47.43831 -117.85309 4869 ft 185 kts 95°
2026-04-30 14:20 47.43978 -117.83433 4685 ft 184 kts 72°
2026-04-30 14:20 47.44293 -117.81757 5346 ft 157 kts 78°
2026-04-30 14:20 47.45511 -117.78931 6369 ft 172 kts 42°
2026-04-30 14:21 47.46265 -117.77543 6688 ft 183 kts 57°
2026-04-30 14:21 47.47106 -117.76107 6773 ft 186 kts 46°
2026-04-30 14:21 47.48851 -117.73115 5978 ft 182 kts 50°
2026-04-30 14:22 47.49687 -117.71866 5587 ft 169 kts 44°
2026-04-30 14:22 47.51396 -117.69671 4683 ft 158 kts 49°
2026-04-30 14:22 47.52106 -117.68485 4354 ft 149 kts 49°
2026-04-30 14:23 47.53393 -117.66322 4247 ft 142 kts 43°
2026-04-30 14:23 47.54846 -117.64295 4154 ft 146 kts 49°
2026-04-30 14:24 47.56265 -117.62163 3804 ft 144 kts 46°
2026-04-30 14:24 47.56970 -117.61107 3613 ft 143 kts 47°
2026-04-30 14:25 47.58347 -117.59028 3215 ft 142 kts 46°
2026-04-30 14:25 47.59739 -117.56931 2814 ft 142 kts 46°
2026-04-30 14:26 47.61117 -117.54845 2415 ft 140 kts 46°
2026-04-30 14:26 47.61742 -117.53909 2390 ft 113 kts 47°
2026-04-30 14:26 47.62292 -117.53163 2392 ft 10 kts 24°
2026-04-30 14:27 47.62296 -117.53160 2391 ft 0 kts 24°
2026-04-30 14:27 47.62323 -117.53142 2391 ft 8 kts 22°
2026-04-30 14:28 47.62491 -117.53073 2388 ft 13 kts 353°
2026-04-30 14:28 47.62505 -117.53165 2391 ft 12 kts 245°
2026-04-30 14:28 47.62523 -117.53272 2387 ft 10 kts 305°
2026-04-30 14:28 47.62555 -117.53367 2389 ft 8 kts 283°
2026-04-30 14:29 47.62559 -117.53400 2387 ft 0 kts 280°